Time,TemperatureF,DewpointF,PressureIn,WindDirection,WindDirectionDegrees,WindSpeedMPH,WindSpeedGustMPH,Humidity,HourlyPrecipIn,Conditions,Clouds,dailyrainin,SoftwareType,DateUTC
2013-06-28 00:01:00,73.0,69.0,-100.00,WNW,295,4.0,7.0,84,0.00,,,-99.99,,2013-06-28 05:01:00,
2013-06-28 00:11:00,75.0,67.0,-100.00,WNW,295,4.0,11.0,75,0.00,,,-99.99,,2013-06-28 05:11:00,
2013-06-28 00:22:00,75.0,67.0,-100.00,WNW,295,4.0,10.0,74,0.00,,,-99.99,,2013-06-28 05:22:00,
2013-06-28 00:33:00,75.0,66.0,-100.00,NW,310,4.0,9.0,74,0.00,,,-99.99,,2013-06-28 05:33:00,
2013-06-28 00:43:00,73.0,66.0,-100.00,NW,305,4.0,7.0,78,0.00,,,-99.99,,2013-06-28 05:43:00,
2013-06-28 00:53:00,72.0,66.0,-100.00,NW,305,4.0,9.0,80,0.00,,,-99.99,,2013-06-28 05:53:00,
2013-06-28 01:02:00,72.0,66.0,-100.00,NW,310,4.0,9.0,82,0.00,,,-99.99,,2013-06-28 06:02:00,
2013-06-28 01:12:00,71.0,66.0,-100.00,NW,315,5.0,9.0,84,0.00,,,-99.99,,2013-06-28 06:12:00,
2013-06-28 01:22:00,72.0,66.0,-100.00,WNW,300,4.0,9.0,82,0.00,,,-99.99,,2013-06-28 06:22:00,
2013-06-28 01:33:00,72.0,65.0,-100.00,WNW,300,5.0,9.0,78,0.00,,,-99.99,,2013-06-28 06:33:00,
2013-06-28 01:42:00,73.0,64.0,-100.00,WNW,300,6.0,9.0,75,0.00,,,-99.99,,2013-06-28 06:42:00,
2013-06-28 02:01:00,72.0,64.0,-100.00,WNW,295,4.0,11.0,75,0.00,,,-99.99,,2013-06-28 07:01:00,
2013-06-28 02:11:00,72.0,64.0,-100.00,WNW,295,4.0,9.0,73,0.00,,,-99.99,,2013-06-28 07:11:00,
2013-06-28 02:22:00,72.0,64.0,-100.00,NW,305,4.0,9.0,75,0.00,,,-99.99,,2013-06-28 07:22:00,
2013-06-28 02:33:00,72.0,64.0,-100.00,WNW,285,4.0,10.0,75,0.00,,,-99.99,,2013-06-28 07:33:00,
2013-06-28 02:42:00,72.0,64.0,-100.00,WNW,290,4.0,8.0,76,0.00,,,-99.99,,2013-06-28 07:42:00,
2013-06-28 02:52:00,72.0,64.0,-100.00,WNW,290,5.0,11.0,76,0.00,,,-99.99,,2013-06-28 07:52:00,
2013-06-28 03:01:00,72.0,64.0,-100.00,West,280,5.0,9.0,76,0.00,,,-99.99,,2013-06-28 08:01:00,
2013-06-28 03:11:00,71.0,64.0,-100.00,WNW,290,4.0,9.0,77,0.00,,,-99.99,,2013-06-28 08:11:00,
2013-06-28 03:33:00,71.0,64.0,-100.00,WNW,295,4.0,7.0,78,0.00,,,-99.99,,2013-06-28 08:33:00,
2013-06-28 03:43:00,72.0,64.0,-100.00,WNW,290,4.0,9.0,76,0.00,,,-99.99,,2013-06-28 08:43:00,
2013-06-28 03:52:00,72.0,64.0,-100.00,NW,310,6.0,12.0,75,0.00,,,-99.99,,2013-06-28 08:52:00,
2013-06-28 04:02:00,72.0,64.0,-100.00,NW,305,6.0,12.0,75,0.00,,,-99.99,,2013-06-28 09:02:00,
2013-06-28 04:11:00,71.0,64.0,-100.00,West,280,4.0,11.0,78,0.00,,,-99.99,,2013-06-28 09:11:00,
2013-06-28 04:22:00,70.0,64.0,-100.00,West,265,6.0,11.0,81,0.00,,,-99.99,,2013-06-28 09:22:00,
2013-06-28 04:33:00,69.0,64.0,-100.00,West,280,4.0,7.0,84,0.00,,,-99.99,,2013-06-28 09:33:00,
2013-06-28 04:42:00,69.0,65.0,-100.00,West,280,4.0,6.0,85,0.00,,,-99.99,,2013-06-28 09:42:00,
2013-06-28 05:02:00,69.0,65.0,-100.00,WNW,300,4.0,7.0,85,0.00,,,-99.99,,2013-06-28 10:02:00,
2013-06-28 05:12:00,69.0,65.0,-100.00,NW,310,4.0,11.0,87,0.00,,,-99.99,,2013-06-28 10:12:00,
2013-06-28 05:22:00,69.0,65.0,-100.00,NW,305,4.0,11.0,87,0.00,,,-99.99,,2013-06-28 10:22:00,
2013-06-28 05:42:00,68.0,65.0,-100.00,NW,310,6.0,11.0,89,0.00,,,-99.99,,2013-06-28 10:42:00,
2013-06-28 06:02:00,68.0,65.0,-100.00,NW,305,7.0,13.0,91,0.00,,,-99.99,,2013-06-28 11:02:00,
2013-06-28 06:11:00,68.0,65.0,-100.00,NW,305,7.0,14.0,90,0.00,,,-99.99,,2013-06-28 11:11:00,
2013-06-28 06:22:00,68.0,65.0,-100.00,NW,305,7.0,14.0,90,0.00,,,-99.99,,2013-06-28 11:22:00,
2013-06-28 06:34:00,69.0,65.0,-100.00,NW,310,7.0,12.0,90,0.00,,,-99.99,,2013-06-28 11:34:00,
2013-06-28 06:43:00,69.0,65.0,-100.00,NW,325,9.0,12.0,88,0.00,,,-99.99,,2013-06-28 11:43:00,
2013-06-28 06:53:00,69.0,65.0,-100.00,NW,305,9.0,13.0,86,0.00,,,-99.99,,2013-06-28 11:53:00,
2013-06-28 07:02:00,70.0,65.0,-100.00,NW,320,9.0,14.0,84,0.00,,,-99.99,,2013-06-28 12:02:00,
2013-06-28 07:12:00,70.0,64.0,-100.00,NW,305,11.0,17.0,81,0.00,,,-99.99,,2013-06-28 12:12:00,
2013-06-28 07:22:00,71.0,64.0,-100.00,NW,320,8.0,14.0,79,0.00,,,-99.99,,2013-06-28 12:22:00,
2013-06-28 07:34:00,71.0,64.0,-100.00,NW,315,7.0,15.0,77,0.00,,,-99.99,,2013-06-28 12:34:00,
2013-06-28 07:43:00,72.0,63.0,-100.00,NW,315,4.0,13.0,75,0.00,,,-99.99,,2013-06-28 12:43:00,
2013-06-28 07:52:00,72.0,63.0,-100.00,NW,315,7.0,12.0,73,0.00,,,-99.99,,2013-06-28 12:52:00,
2013-06-28 08:11:00,73.0,63.0,-100.00,NW,315,7.0,12.0,70,0.00,,,-99.99,,2013-06-28 13:11:00,
2013-06-28 08:23:00,73.0,62.0,-100.00,NW,310,9.0,14.0,67,0.00,,,-99.99,,2013-06-28 13:23:00,
2013-06-28 08:43:00,75.0,63.0,-100.00,NW,310,6.0,10.0,65,0.00,,,-99.99,,2013-06-28 13:43:00,
2013-06-28 08:53:00,75.0,62.0,-100.00,NW,305,9.0,12.0,63,0.00,,,-99.99,,2013-06-28 13:53:00,
2013-06-28 09:02:00,76.0,62.0,-100.00,NW,320,10.0,14.0,61,0.00,,,-99.99,,2013-06-28 14:02:00,
2013-06-28 09:12:00,76.0,62.0,-100.00,NW,310,7.0,12.0,60,0.00,,,-99.99,,2013-06-28 14:12:00,
2013-06-28 09:33:00,77.0,61.0,-100.00,NW,310,9.0,14.0,57,0.00,,,-99.99,,2013-06-28 14:33:00,
2013-06-28 09:44:00,77.0,61.0,-100.00,NW,315,9.0,16.0,56,0.00,,,-99.99,,2013-06-28 14:44:00,
2013-06-28 10:02:00,79.0,61.0,-100.00,NNW,330,9.0,17.0,54,0.00,,,-99.99,,2013-06-28 15:02:00,
2013-06-28 10:11:00,78.0,59.0,-100.00,NW,310,12.0,20.0,52,0.00,,,-99.99,,2013-06-28 15:11:00,
2013-06-28 10:24:00,80.0,60.0,-100.00,NW,320,9.0,19.0,51,0.00,,,-99.99,,2013-06-28 15:24:00,
2013-06-28 10:34:00,79.0,60.0,-100.00,WNW,295,16.0,22.0,51,0.00,,,-99.99,,2013-06-28 15:34:00,
2013-06-28 10:43:00,80.0,59.0,-100.00,NW,310,18.0,23.0,49,0.00,,,-99.99,,2013-06-28 15:43:00,
2013-06-28 11:01:00,81.0,59.0,-100.00,NW,310,10.0,26.0,47,0.00,,,-99.99,,2013-06-28 16:01:00,
2013-06-28 11:11:00,81.0,59.0,-100.00,NW,310,8.0,21.0,46,0.00,,,-99.99,,2013-06-28 16:11:00,
2013-06-28 11:24:00,81.0,57.0,-100.00,NW,310,17.0,29.0,44,0.00,,,-99.99,,2013-06-28 16:24:00,
2013-06-28 11:33:00,82.0,58.0,-100.00,NNW,330,9.0,22.0,44,0.00,,,-99.99,,2013-06-28 16:33:00,
2013-06-28 11:44:00,82.0,58.0,-100.00,NW,305,13.0,30.0,44,0.00,,,-99.99,,2013-06-28 16:44:00,
2013-06-28 11:53:00,81.0,57.0,-100.00,NW,310,19.0,30.0,43,0.00,,,-99.99,,2013-06-28 16:53:00,
2013-06-28 12:02:00,82.0,56.0,-100.00,NW,320,14.0,27.0,41,0.00,,,-99.99,,2013-06-28 17:02:00,
2013-06-28 12:11:00,82.0,57.0,-100.00,NW,305,17.0,27.0,41,0.00,,,-99.99,,2013-06-28 17:11:00,
2013-06-28 12:22:00,83.0,57.0,-100.00,NW,305,14.0,36.0,41,0.00,,,-99.99,,2013-06-28 17:22:00,
2013-06-28 12:33:00,83.0,57.0,-100.00,NW,325,17.0,36.0,41,0.00,,,-99.99,,2013-06-28 17:33:00,
2013-06-28 12:44:00,83.0,56.0,-100.00,NW,315,21.0,34.0,39,0.00,,,-99.99,,2013-06-28 17:44:00,
2013-06-28 12:52:00,83.0,56.0,-100.00,NW,325,16.0,32.0,39,0.00,,,-99.99,,2013-06-28 17:52:00,
2013-06-28 13:02:00,83.0,55.0,-100.00,NW,305,23.0,32.0,38,0.00,,,-99.99,,2013-06-28 18:02:00,
2013-06-28 13:11:00,84.0,56.0,-100.00,NW,315,19.0,33.0,38,0.00,,,-99.99,,2013-06-28 18:11:00,
2013-06-28 13:22:00,84.0,56.0,-100.00,NW,315,17.0,30.0,38,0.00,,,-99.99,,2013-06-28 18:22:00,
2013-06-28 13:33:00,84.0,56.0,-100.00,NW,320,19.0,32.0,37,0.00,,,-99.99,,2013-06-28 18:33:00,
2013-06-28 13:43:00,84.0,55.0,-100.00,NW,310,19.0,35.0,37,0.00,,,-99.99,,2013-06-28 18:43:00,
2013-06-28 13:52:00,84.0,55.0,-100.00,WNW,300,19.0,30.0,36,0.00,,,-99.99,,2013-06-28 18:52:00,
2013-06-28 14:01:00,85.0,56.0,-100.00,NW,320,16.0,32.0,36,0.00,,,-99.99,,2013-06-28 19:01:00,
2013-06-28 14:11:00,85.0,56.0,-100.00,NNW,330,14.0,31.0,37,0.00,,,-99.99,,2013-06-28 19:11:00,
2013-06-28 14:22:00,85.0,56.0,-100.00,NW,310,16.0,32.0,36,0.00,,,-99.99,,2013-06-28 19:22:00,
2013-06-28 14:33:00,85.0,56.0,-100.00,NW,325,20.0,34.0,36,0.00,,,-99.99,,2013-06-28 19:33:00,
2013-06-28 14:43:00,85.0,56.0,-100.00,NW,305,14.0,28.0,36,0.00,,,-99.99,,2013-06-28 19:43:00,
2013-06-28 14:53:00,85.0,56.0,-100.00,NW,320,16.0,32.0,36,0.00,,,-99.99,,2013-06-28 19:53:00,
2013-06-28 15:02:00,85.0,55.0,-100.00,NW,315,21.0,29.0,35,0.00,,,-99.99,,2013-06-28 20:02:00,
2013-06-28 15:11:00,86.0,55.0,-100.00,NW,320,17.0,35.0,35,0.00,,,-99.99,,2013-06-28 20:11:00,
2013-06-28 15:22:00,85.0,54.0,-100.00,NW,325,17.0,32.0,34,0.00,,,-99.99,,2013-06-28 20:22:00,
2013-06-28 15:33:00,85.0,54.0,-100.00,NW,315,24.0,34.0,34,0.00,,,-99.99,,2013-06-28 20:33:00,
2013-06-28 15:43:00,86.0,55.0,-100.00,NW,310,16.0,31.0,34,0.00,,,-99.99,,2013-06-28 20:43:00,
2013-06-28 15:52:00,85.0,54.0,-100.00,NNW,330,23.0,36.0,34,0.00,,,-99.99,,2013-06-28 20:52:00,
2013-06-28 16:02:00,86.0,54.0,-100.00,NW,315,21.0,32.0,33,0.00,,,-99.99,,2013-06-28 21:02:00,
2013-06-28 16:11:00,85.0,54.0,-100.00,NW,315,18.0,37.0,33,0.00,,,-99.99,,2013-06-28 21:11:00,
2013-06-28 16:23:00,86.0,55.0,-100.00,NW,320,16.0,27.0,34,0.00,,,-99.99,,2013-06-28 21:23:00,
2013-06-28 16:34:00,86.0,55.0,-100.00,NW,325,14.0,29.0,34,0.00,,,-99.99,,2013-06-28 21:34:00,
2013-06-28 16:43:00,85.0,54.0,-100.00,NW,310,16.0,30.0,34,0.00,,,-99.99,,2013-06-28 21:43:00,
2013-06-28 17:01:00,85.0,55.0,-100.00,NNW,330,14.0,29.0,35,0.00,,,-99.99,,2013-06-28 22:01:00,
2013-06-28 17:11:00,85.0,55.0,-100.00,NW,320,14.0,29.0,36,0.00,,,-99.99,,2013-06-28 22:11:00,
2013-06-28 17:22:00,85.0,55.0,-100.00,NNW,335,18.0,30.0,36,0.00,,,-99.99,,2013-06-28 22:22:00,
2013-06-28 17:34:00,85.0,56.0,-100.00,NW,325,18.0,29.0,37,0.00,,,-99.99,,2013-06-28 22:34:00,
2013-06-28 17:43:00,85.0,56.0,-100.00,NW,315,11.0,29.0,37,0.00,,,-99.99,,2013-06-28 22:43:00,
2013-06-28 17:52:00,85.0,56.0,-100.00,NNW,330,13.0,24.0,37,0.00,,,-99.99,,2013-06-28 22:52:00,
2013-06-28 18:02:00,85.0,55.0,-100.00,NW,315,20.0,29.0,36,0.00,,,-99.99,,2013-06-28 23:02:00,
2013-06-28 18:11:00,84.0,55.0,-100.00,NW,325,20.0,31.0,36,0.00,,,-99.99,,2013-06-28 23:11:00,
2013-06-28 18:23:00,84.0,55.0,-100.00,NW,305,17.0,24.0,36,0.00,,,-99.99,,2013-06-28 23:23:00,
2013-06-28 18:34:00,84.0,55.0,-100.00,NW,315,11.0,26.0,37,0.00,,,-99.99,,2013-06-28 23:34:00,
2013-06-28 18:43:00,84.0,55.0,-100.00,NW,320,14.0,29.0,37,0.00,,,-99.99,,2013-06-28 23:43:00,
2013-06-28 19:02:00,83.0,54.0,-100.00,NW,320,16.0,28.0,37,0.00,,,-99.99,,2013-06-29 00:02:00,
2013-06-28 19:11:00,83.0,55.0,-100.00,NNW,340,14.0,27.0,37,0.00,,,-99.99,,2013-06-29 00:11:00,
2013-06-28 19:22:00,83.0,55.0,-100.00,NNW,330,12.0,29.0,38,0.00,,,-99.99,,2013-06-29 00:22:00,
2013-06-28 19:33:00,82.0,55.0,-100.00,NNW,340,14.0,24.0,39,0.00,,,-99.99,,2013-06-29 00:33:00,
2013-06-28 19:42:00,82.0,56.0,-100.00,NNW,345,11.0,19.0,40,0.00,,,-99.99,,2013-06-29 00:42:00,
2013-06-28 20:01:00,81.0,56.0,-100.00,NNW,335,12.0,21.0,42,0.00,,,-99.99,,2013-06-29 01:01:00,
2013-06-28 20:11:00,80.0,55.0,-100.00,NNW,330,7.0,19.0,43,0.00,,,-99.99,,2013-06-29 01:11:00,
2013-06-28 20:22:00,79.0,55.0,-100.00,NNW,340,7.0,14.0,45,0.00,,,-99.99,,2013-06-29 01:22:00,
2013-06-28 20:32:00,78.0,56.0,-100.00,NNW,330,11.0,21.0,46,0.00,,,-99.99,,2013-06-29 01:32:00,
2013-06-28 20:42:00,78.0,55.0,-100.00,NNW,340,9.0,21.0,46,0.00,,,-99.99,,2013-06-29 01:42:00,
2013-06-28 20:51:00,77.0,55.0,-100.00,NNW,335,8.0,16.0,47,0.00,,,-99.99,,2013-06-29 01:51:00,
2013-06-28 21:01:00,76.0,55.0,-100.00,North,355,4.0,17.0,48,0.00,,,-99.99,,2013-06-29 02:01:00,
2013-06-28 21:11:00,75.0,56.0,-100.00,NNW,335,4.0,11.0,51,0.00,,,-99.99,,2013-06-29 02:11:00,
2013-06-28 21:21:00,74.0,56.0,-100.00,North,350,4.0,10.0,52,0.00,,,-99.99,,2013-06-29 02:21:00,
2013-06-28 21:31:00,74.0,57.0,-100.00,NNW,335,4.0,7.0,55,0.00,,,-99.99,,2013-06-29 02:31:00,
2013-06-28 21:41:00,73.0,57.0,-100.00,NNW,345,2.0,7.0,57,0.00,,,-99.99,,2013-06-29 02:41:00,
2013-06-28 21:51:00,72.0,58.0,-100.00,NNW,335,3.0,6.0,59,0.00,,,-99.99,,2013-06-29 02:51:00,
2013-06-28 22:01:00,72.0,58.0,-100.00,NNW,330,2.0,5.0,61,0.00,,,-99.99,,2013-06-29 03:01:00,
2013-06-28 22:11:00,71.0,59.0,-100.00,NNW,335,2.0,4.0,64,0.00,,,-99.99,,2013-06-29 03:11:00,
2013-06-28 22:21:00,71.0,59.0,-100.00,NNW,340,2.0,5.0,65,0.00,,,-99.99,,2013-06-29 03:21:00,
2013-06-28 22:32:00,71.0,59.0,-100.00,NW,315,3.0,6.0,66,0.00,,,-99.99,,2013-06-29 03:32:00,
2013-06-28 22:41:00,71.0,59.0,-100.00,NW,315,4.0,8.0,65,0.00,,,-99.99,,2013-06-29 03:41:00,
2013-06-28 23:01:00,71.0,60.0,-100.00,NW,320,4.0,10.0,66,0.00,,,-99.99,,2013-06-29 04:01:00,
2013-06-28 23:11:00,71.0,60.0,-100.00,NW,315,5.0,11.0,66,0.00,,,-99.99,,2013-06-29 04:11:00,
2013-06-28 23:23:00,71.0,60.0,-100.00,NW,315,9.0,12.0,67,0.00,,,-99.99,,2013-06-29 04:23:00,
2013-06-28 23:32:00,71.0,60.0,-100.00,NW,320,6.0,12.0,67,0.00,,,-99.99,,2013-06-29 04:32:00,
2013-06-28 23:41:00,71.0,60.0,-100.00,NW,320,4.0,11.0,68,0.00,,,-99.99,,2013-06-29 04:41:00,